This is the latest recevied weather packets stored in our database for station/object NZ3C. If no packets are shown the sender has not sent any weather packets the latest 10 day(s).
| Time | Temp. | Humidity | Pressure | Rain* | Wind** | Luminosity | Snow |
|---|---|---|---|---|---|---|---|
| 1777746339 | 11.67° C | 92% | 1013.8 hPa | 1.78 mm | - | 80 W/m² | - |
| 1777746036 | 11.67° C | 92% | 1013.5 hPa | 0 mm | - | 78 W/m² | - |
| 1777745734 | 11.67° C | 93% | 1013.8 hPa | 0 mm | - | 65 W/m² | - |
| 1777745432 | 11.67° C | 92% | 1013.6 hPa | 0 mm | - | 55 W/m² | - |
| 1777745129 | 11.67° C | 92% | 1013.7 hPa | 0 mm | - | 88 W/m² | - |
| 1777744825 | 11.67° C | 92% | 1013.9 hPa | 0 mm | - | 146 W/m² | - |
| 1777744519 | 11.67° C | 92% | 1013.5 hPa | 0 mm | - | 192 W/m² | - |
| 1777744216 | 11.67° C | 93% | 1013.7 hPa | 0 mm | - | 262 W/m² | - |
| 1777743913 | 11.67° C | 94% | 1013.7 hPa | 0 mm | - | 231 W/m² | - |
| 1777743609 | 11.67° C | 94% | 1013.7 hPa | 0 mm | - | 105 W/m² | - |
| 1777743307 | 11.67° C | 94% | 1013.9 hPa | 1.27 mm | - | 105 W/m² | - |
| 1777743005 | 11.67° C | 94% | 1013.6 hPa | 0 mm | - | 146 W/m² | - |
| 1777742702 | 11.67° C | 94% | 1013.6 hPa | 0 mm | - | 124 W/m² | - |
| 1777742398 | 11.67° C | 95% | 1013.5 hPa | 1.78 mm | - | 265 W/m² | - |
| 1777742094 | 11.67° C | 94% | 1013.5 hPa | 3.56 mm | - | 148 W/m² | - |
| 1777741792 | 11.67° C | 95% | 1013.5 hPa | 1.78 mm | - | 231 W/m² | - |
| 1777741488 | 11.67° C | 94% | 1014.1 hPa | 1.27 mm | - | 156 W/m² | - |
| 1777741184 | 11.67° C | 94% | 1014.2 hPa | 3.05 mm | - | 171 W/m² | - |
| 1777740882 | 11.67° C | 94% | 1014.3 hPa | 3.05 mm | - | 127 W/m² | - |
| 1777740578 | 11.67° C | 94% | 1014.5 hPa | 3.05 mm | - | 106 W/m² | - |
| 1777740274 | 11.67° C | 95% | 1014.5 hPa | 3.05 mm | - | 108 W/m² | - |
| 1777739971 | 11.67° C | 94% | 1014.6 hPa | 3.05 mm | - | 119 W/m² | - |
| 1777739667 | 11.67° C | 95% | 1014.6 hPa | 3.05 mm | - | 103 W/m² | - |
| 1777739365 | 11.67° C | 94% | 1014.7 hPa | 3.05 mm | - | 89 W/m² | - |
| 1777739062 | 11.67° C | 94% | 1014.8 hPa | 3.05 mm | - | 59 W/m² | - |
* Rain latest hour (hover to see other rain measurements)
** Current wind speed in m/s (hover to see current wind gust speed)